Flag for U.S.A. Weather past 2 weeks in Green Bay, Wisconsin, U.S.A.

Now
67 °F

Mostly cloudy.


Feels Like: 67 °F
Forecast: 66 / 78 °F
Wind: 5 mph from Northeast

Location: Austin Straubel International Airport

Current Time: Aug 22, 2014 at 1:11:20 AM

Latest Report: Aug 22, 2014 at 12:53 AM


Visibility: 7 mi

Pressure: 29.94 "Hg

Humidity: 93%

Dew point: 65 °F

Location of Green BayLocation

Historic Weather in Green Bay — Graph

°F

Green Bay temperature yesterday

Maximum temperature yesterday: 72 °F (at 5:53 PM)
Minimum temperature yesterday: 58 °F (at 4:53 AM)
Average temperature yesterday: 66 °F

Past Weeks' High & Low Weather Summary

 TemperatureHumidityPressure
High82 °F (Aug 8, 1:53 PM)100% (Aug 15, 6:53 AM)30.17 "Hg (Aug 15, 6:53 AM)
Low48 °F (Aug 14, 4:53 AM)38% (Aug 14, 3:53 PM)29.63 "Hg (Aug 19, 4:53 AM)
Average66 °F79%29.96 "Hg
* Reported Aug 6 11:53 PM — Aug 21 11:53 PM, Green Bay, Weather by CustomWeather, © 2014

Note: Actual official high and low records may vary slightly from our data, if they occured in-between our weather recording intervals... More about our weather records

Advertising

Green Bay weather history for previous 24 hours

 ConditionsComfort  
Time TempWeatherWind HumidityBarometerVisibility
11:53 PM
Aug 21
66 °FLow clouds.3 mph96%29.94 "Hg7 mi
10:53 PM66 °FPassing clouds.5 mph93%29.94 "Hg8 mi
9:53 PM67 °FLow clouds.5 mph93%29.95 "Hg7 mi
8:53 PM67 °FLow clouds.7 mph93%29.95 "Hg7 mi
7:53 PM68 °FOvercast.8 mph90%29.93 "Hg9 mi
6:53 PM69 °FOvercast.7 mph87%29.93 "Hg10 mi
6:04 PM71 °FMostly cloudy.6 mph81%29.94 "Hg10 mi
5:53 PM72 °FMore clouds than sun.7 mph81%29.93 "Hg10 mi
4:53 PM70 °FPartly sunny.7 mph84%29.94 "Hg10 mi
3:53 PM68 °FOvercast.6 mph87%29.94 "Hg10 mi
2:53 PM68 °FPartly sunny.9 mph90%29.92 "Hg10 mi
1:49 PM68 °FLight rain. Cloudy.9 mph90%29.95 "Hg10 mi
12:53 PM68 °FLight rain. More clouds than sun.7 mph90%29.97 "Hg8 mi
11:53 AM69 °FLight rain. Overcast.6 mph81%29.96 "Hg10 mi
10:53 AM70 °FOvercast.8 mph79%29.96 "Hg10 mi
9:53 AM70 °FOvercast.7 mph79%29.96 "Hg10 mi
8:53 AM70 °FSunny.7 mph79%29.96 "Hg10 mi
7:53 AM66 °FPassing clouds.No wind90%29.97 "Hg7 mi
6:53 AM63 °FFog.No wind97%29.94 "Hg4 mi
5:53 AM60 °FFog.No wind96%29.93 "Hg5 mi
4:53 AM58 °FFog.No wind100%29.94 "Hg5 mi
3:53 AM60 °FFog.No wind96%29.94 "Hg5 mi
2:53 AM60 °FFog.No wind100%29.96 "Hg5 mi
1:53 AM62 °FPassing clouds.3 mph96%29.96 "Hg7 mi
1:04 AM60 °FFog.5 mph100%29.97 "Hg3 mi
Weather by CustomWeather, © 2014

See weather overviewHow to use our weather pages